Theta_e
355 355 354 354 354 353 353 353 353 354 355 356 356 356 356 354 353 353 355 358 357 356 354 350 346 345 346 345 342 341 340 337 336 338 338 337 335 332 333 336 336 336
355 355 355 354 354 354 353 353 354 355 355 355 355 355 355 354 353 353 355 357 357 356 354 350 346 346 347 346 343 342 341 336 335 338 338 337 336 333 332 333 334 334
355 355 355 355 354 354 353 353 354 354 355 355 355 354 354 353 353 354 355 357 356 355 354 351 347 347 348 347 345 344 341 336 335 337 338 338 336 333 332 333 333 333
356 355 355 355 354 354 354 353 353 354 354 354 354 353 353 353 354 354 355 356 356 355 353 351 348 347 348 347 346 345 341 334 335 338 339 338 334 332 333 334 334 333
356 356 355 355 354 354 354 354 353 353 353 353 353 353 353 354 354 355 355 355 355 354 353 351 349 347 348 347 346 345 340 335 336 339 339 337 334 333 333 334 335 335
356 356 355 355 355 354 354 354 354 354 353 353 353 353 353 354 355 355 355 355 354 353 352 351 350 348 348 347 347 345 341 336 337 338 339 337 335 335 335 335 335 336
356 356 356 355 355 355 354 354 354 354 354 354 353 353 354 354 354 354 354 354 353 353 352 351 351 349 348 347 347 346 342 338 337 338 339 338 337 337 337 336 336 336
356 356 356 356 355 355 355 354 354 354 354 354 354 353 354 354 354 354 354 354 353 352 352 351 351 350 348 347 347 346 342 338 338 338 338 338 337 338 339 338 337 337
355 356 356 356 356 355 356 355 355 355 354 354 354 354 353 354 354 354 353 353 353 352 352 351 351 350 349 348 346 345 343 339 339 339 339 339 338 337 339 338 337 337
355 355 356 356 356 356 356 355 355 355 355 355 355 354 354 354 353 354 353 353 352 352 351 351 350 350 349 348 347 345 343 341 340 340 339 339 338 337 339 338 337 337
356 356 355 356 356 356 356 356 356 356 355 355 355 355 355 354 354 354 353 353 352 351 351 351 350 350 349 348 347 345 344 343 341 340 339 339 338 337 339 338 337 338
357 356 356 356 356 356 356 356 356 356 356 355 356 355 355 354 354 354 353 353 352 351 351 351 350 350 349 349 348 345 344 343 341 340 339 339 338 338 339 339 338 338
358 357 357 356 357 356 357 357 356 357 357 356 356 356 355 355 354 354 353 353 352 351 351 351 350 350 350 349 348 346 344 343 341 340 339 339 339 339 339 339 339 339
358 358 358 357 357 357 357 357 357 357 357 356 357 356 355 355 355 354 353 353 352 352 351 351 350 350 350 349 348 346 344 343 341 340 339 339 339 339 339 339 339 339
358 358 359 358 358 358 357 357 357 357 357 357 357 356 356 355 355 354 354 353 352 352 352 351 351 350 350 349 347 345 344 343 342 341 340 340 340 339 339 338 339 339
359 359 359 359 359 358 358 358 357 357 357 357 357 357 356 356 355 355 354 353 353 352 351 351 351 350 350 349 348 347 345 344 343 342 342 341 341 340 339 339 339 339
360 359 359 360 359 359 359 358 358 358 357 357 357 357 357 356 356 355 355 354 354 353 352 351 351 351 350 349 348 347 347 345 344 343 343 342 341 341 340 340 340 340
360 360 360 360 359 359 359 359 359 358 357 357 357 357 357 356 356 355 355 355 354 353 352 352 351 350 350 349 349 348 348 346 345 344 343 342 341 341 341 340 340 340
360 360 360 360 360 359 359 359 359 358 358 357 356 357 356 356 356 356 355 355 354 354 353 352 352 351 350 349 349 349 349 348 346 345 343 342 342 342 341 341 340 340
360 360 360 360 360 360 359 359 359 359 358 357 356 356 356 356 356 356 356 355 355 354 354 353 352 351 350 350 350 350 350 349 347 345 344 343 343 342 342 341 341 340
361 361 360 360 360 360 360 359 359 359 358 357 357 356 356 356 356 356 356 355 355 355 354 353 353 352 351 350 350 351 351 349 347 345 344 343 343 343 342 342 341 341
361 361 360 360 360 360 360 359 359 359 358 358 357 356 356 356 356 356 356 355 356 355 354 354 353 353 352 351 352 352 352 350 346 343 343 343 344 343 342 342 341 341
361 361 361 361 360 360 360 359 359 359 358 358 358 357 357 356 356 356 356 356 356 355 355 355 354 353 353 352 352 353 352 348 343 340 341 343 344 343 343 342 342 341
361 361 361 361 360 360 360 359 360 359 359 359 358 357 357 357 356 356 356 357 356 356 356 355 354 354 354 353 353 354 352 346 341 340 341 342 342 342 342 342 342 342
361 361 361 361 361 360 360 360 360 359 359 359 358 358 357 357 357 356 356 357 357 356 357 356 355 355 354 354 354 354 352 346 341 341 341 341 341 342 341 341 341 341
360 361 361 361 361 361 360 360 360 359 359 359 359 358 358 357 357 357 357 357 357 357 357 356 356 355 354 355 355 354 352 347 342 341 342 341 341 341 340 341 341 340
Wind_Speed
44 42 41 39 38 37 35 35 36 37 36 36 37 37 38 37 35 34 33 31 31 31 31 32 32 31 28 26 25 25 25 25 24 23 23 23 21 20 20 20 19 18
43 42 40 39 37 36 35 35 36 38 38 37 38 38 38 37 35 35 34 32 32 32 32 33 34 32 31 29 27 26 26 26 26 25 25 25 23 22 22 21 20 19
44 42 40 39 38 37 36 36 36 38 38 38 38 38 37 37 36 35 35 34 33 33 33 34 35 34 32 31 29 28 28 28 27 26 26 26 24 23 22 21 20 20
44 43 42 40 39 38 37 36 36 37 38 37 38 38 37 37 36 36 36 35 34 34 34 35 35 35 34 33 31 30 30 29 28 27 27 27 24 23 23 21 21 21
45 44 42 41 39 38 37 37 37 37 38 38 38 38 37 37 37 37 37 36 36 35 35 35 36 36 35 34 33 32 32 31 29 28 29 28 25 25 25 23 22 21
44 43 42 41 40 38 38 38 39 39 38 38 38 37 38 37 38 38 38 37 37 36 36 36 36 37 37 36 35 34 34 33 31 30 30 30 27 26 26 25 24 23
43 42 42 41 40 39 39 40 40 39 39 38 38 38 38 38 38 39 39 38 38 38 38 37 37 37 37 37 37 36 36 35 33 32 32 31 29 28 27 27 26 25
42 42 42 41 40 40 40 40 41 40 39 38 38 38 38 38 39 40 39 39 39 39 39 38 38 37 37 38 38 38 37 36 35 34 34 33 31 30 29 28 27 27
42 41 41 41 41 41 41 41 41 40 40 39 39 39 38 39 39 39 39 39 39 40 39 39 39 38 38 38 39 38 38 37 36 36 35 34 33 32 31 29 28 28
41 41 41 41 42 42 42 42 41 40 39 40 40 39 38 39 39 39 39 39 39 40 40 40 40 39 38 38 39 39 38 38 37 37 36 36 35 33 32 30 30 30
41 40 41 42 43 42 42 42 41 40 40 40 39 38 38 38 38 38 38 39 40 40 40 40 40 40 39 38 39 39 39 38 37 37 37 36 35 34 33 32 31 31
40 40 41 42 43 42 41 41 40 40 40 40 39 38 37 37 38 38 39 40 41 40 40 40 40 40 40 39 39 39 39 38 37 37 37 36 35 34 33 33 32 32
41 42 41 41 42 42 40 40 40 41 40 40 39 37 37 37 38 38 39 40 40 40 40 40 39 40 40 40 40 39 38 38 37 37 36 35 35 34 33 33 33 33
43 42 41 41 41 41 40 40 40 41 40 39 37 37 38 38 38 38 39 39 39 39 39 39 39 40 40 40 40 39 38 37 37 37 36 35 35 34 34 33 33 33
41 40 40 41 40 40 41 40 40 40 39 38 37 37 38 38 38 38 38 38 38 38 38 39 39 40 41 41 40 39 38 38 38 37 36 35 34 34 34 34 34 33
40 40 40 40 40 41 40 39 39 38 37 37 37 37 37 37 37 37 38 38 37 37 37 38 40 41 42 42 41 40 39 39 39 38 37 35 34 33 33 34 34 34
40 40 40 40 41 40 39 39 38 37 37 37 37 37 37 37 37 37 38 38 38 37 38 39 40 41 41 41 41 41 41 40 40 39 38 36 34 33 33 33 33 33
40 40 40 41 41 40 39 38 37 37 36 36 37 38 38 37 37 38 38 38 38 38 38 39 41 41 40 41 41 41 42 42 41 40 38 35 34 34 34 33 33 32
40 39 40 40 41 40 38 36 36 37 38 38 39 39 38 37 38 39 38 38 37 38 39 40 40 40 40 41 40 41 42 43 42 40 36 34 34 34 35 34 32 30
39 39 40 40 39 38 36 36 38 39 40 40 38 37 37 39 39 39 38 38 38 38 39 40 40 40 40 40 40 41 42 44 44 40 35 34 34 34 34 33 31 29
39 40 40 39 37 37 37 38 40 41 41 40 38 38 40 40 39 39 39 38 39 39 38 38 39 40 40 40 41 41 42 43 44 40 35 33 33 33 33 32 30 29
40 40 39 37 36 37 39 40 41 41 41 40 39 39 39 38 38 39 39 38 38 38 38 38 38 39 39 40 40 40 42 43 42 37 32 30 31 32 31 31 30 29
39 38 37 36 37 39 41 42 42 41 40 39 39 38 38 38 38 38 38 38 38 38 38 38 38 38 39 40 39 39 42 42 38 33 30 29 30 31 30 30 29 28
38 37 37 37 38 40 41 41 41 40 40 39 39 39 39 38 37 36 36 38 38 39 39 39 38 37 38 37 38 39 41 39 34 31 30 29 29 30 30 30 29 28
37 37 38 39 39 41 41 40 40 39 38 38 39 39 38 37 36 35 35 36 37 38 39 38 36 36 36 36 37 38 39 37 33 30 28 27 28 29 28 28 28 27
35 38 40 40 40 41 40 39 39 36 35 37 38 37 36 35 35 35 34 35 35 36 37 37 36 35 34 35 36 36 37 37 33 30 29 28 29 29 28 27 27 26
Wind_Direction
210 210 211 213 215 217 217 215 215 215 215 215 215 218 221 223 225 223 222 223 224 225 224 223 223 222 223 227 227 228 230 230 228 229 231 232 234 233 229 225 225 229
209 210 211 211 213 215 216 216 216 216 216 217 217 220 222 223 224 223 222 223 224 225 224 223 223 223 224 227 227 228 229 230 229 230 232 233 235 234 230 229 228 229
209 210 210 210 211 213 215 216 217 218 218 218 218 220 222 223 223 223 223 223 223 224 224 223 224 224 225 227 228 229 230 229 229 229 231 233 236 234 230 230 229 229
209 210 210 211 212 212 213 214 216 218 218 219 219 220 222 222 222 222 222 223 223 223 223 224 225 225 226 227 228 230 230 230 229 228 230 233 234 232 229 229 229 228
209 210 210 212 212 212 211 212 215 217 218 219 220 220 221 222 221 221 221 221 221 221 223 224 225 227 227 227 228 230 229 229 229 228 230 232 233 231 230 229 229 228
209 209 210 211 212 212 211 213 215 217 218 219 220 221 221 220 220 220 221 221 220 221 222 223 225 226 227 227 228 230 229 229 230 229 230 232 233 232 231 230 230 231
208 209 209 210 211 212 212 214 216 217 218 219 220 221 220 219 219 220 221 221 220 221 222 223 225 226 227 227 228 229 229 229 231 231 231 233 233 233 232 231 231 233
208 208 208 209 210 212 213 214 216 217 218 219 220 221 220 219 219 220 221 221 220 221 222 223 225 226 226 227 228 228 228 229 231 231 232 233 232 233 233 232 232 233
208 208 208 208 209 211 213 214 216 217 217 218 220 221 220 220 220 221 221 221 220 220 221 222 225 226 226 227 227 228 227 228 230 231 232 233 233 233 232 232 231 231
208 208 207 208 209 211 213 214 215 216 217 218 219 220 220 220 221 221 220 220 220 220 220 222 224 225 226 227 228 228 228 229 231 231 233 234 234 234 232 231 231 231
208 208 208 209 210 211 213 213 214 215 215 217 218 218 219 219 219 220 219 220 220 220 220 221 223 224 226 227 228 229 229 230 231 233 234 235 236 235 233 231 231 233
207 208 209 209 211 212 213 213 213 214 215 216 217 216 217 218 219 219 219 220 221 220 220 222 223 225 226 228 229 229 229 230 232 234 235 237 237 236 234 233 233 234
207 208 209 210 212 213 213 213 213 214 215 215 216 215 215 217 218 219 220 221 221 221 221 222 223 225 227 228 229 228 228 229 231 233 235 237 237 237 236 236 235 236
207 208 209 210 212 213 214 214 214 214 215 215 214 214 215 217 218 219 221 222 222 222 222 223 223 225 226 227 227 227 227 229 230 232 234 235 237 237 237 237 238 238
206 207 208 210 212 213 214 214 214 215 215 214 214 215 216 218 219 220 221 221 222 222 222 223 223 225 226 226 225 225 226 228 230 232 233 234 235 236 237 238 239 240
205 205 207 208 210 212 213 213 214 214 214 214 214 215 216 217 218 220 221 221 222 222 222 222 224 225 226 226 226 225 226 228 230 232 233 234 233 233 235 237 238 241
203 204 206 207 210 211 212 212 213 213 214 214 213 214 215 216 217 218 220 221 222 222 222 223 224 226 226 226 226 227 228 228 230 232 233 232 232 232 233 235 236 239
203 203 204 206 208 210 210 210 211 212 213 214 213 213 214 214 215 217 219 220 221 222 223 224 226 227 227 226 227 228 230 231 231 232 232 231 230 231 233 235 234 236
202 202 204 206 207 208 208 208 208 210 212 213 214 213 212 213 215 217 218 219 219 221 223 225 227 227 227 226 227 230 232 233 232 232 231 230 230 232 234 234 232 233
201 202 204 206 206 205 205 206 208 210 212 213 213 212 212 213 215 216 217 218 219 220 223 225 226 227 227 227 227 231 235 235 232 231 230 229 231 234 234 233 231 231
201 203 204 205 204 202 203 206 208 210 211 211 211 211 212 214 214 215 217 218 219 221 222 225 227 227 227 227 228 233 237 236 232 229 228 228 232 235 236 234 232 232
201 202 203 203 201 201 203 206 208 210 210 209 209 211 213 214 214 215 216 217 219 220 222 224 227 227 227 227 229 234 237 234 229 227 227 228 231 235 237 236 233 232
203 202 202 201 200 201 204 206 208 209 209 208 208 210 212 213 214 215 215 217 218 219 220 223 226 227 227 227 229 234 235 230 226 225 226 228 233 237 237 236 234 235
203 202 201 201 202 204 206 207 208 209 208 207 207 209 211 213 213 214 215 216 217 218 220 222 224 226 227 226 229 234 232 227 224 224 223 226 232 236 236 234 234 236
203 202 203 204 205 207 207 207 208 209 208 207 208 210 212 212 212 213 214 215 216 218 220 221 222 225 225 226 230 233 230 224 222 221 219 221 228 233 234 233 233 235
204 204 205 207 208 209 208 208 208 208 207 208 209 210 211 211 211 212 213 214 215 217 219 219 220 222 225 226 229 231 227 221 215 214 215 218 224 228 229 228 231 232